Regional Weather Roundup
Issued by NWS Upton, NY

Current Version | Previous Version | Graphics & Text | Print | Product List | Glossary Off
Versions: 1 2 3 4 5 6 7 8 9 10 11 12 13 14 15 16 17 18 19 20 21 22 23 24 25 26 27 28 29 30 31 32 33 34 35 36 37 38 39 40 41 42 43 44 45 46

000
ASUS41 KOKX 311905
RWROKX

REGIONAL WEATHER ROUNDUP
NATIONAL WEATHER SERVICE NEW YORK NY
300 PM EDT THU JUL 31 2014

NOTE: "FAIR" INDICATES FEW OR NO CLOUDS BELOW 12,000 FEET WITH NO
SIGNIFICANT WEATHER AND/OR OBSTRUCTIONS TO VISIBILITY.

NYZ071-072-176-178-NJZ106-104-312000-
NEW YORK CITY METRO AREA


CITY           SKY/WX    TMP DP  RH WIND       PRES   REMARKS
CENTRAL PARK   PTSUNNY   81  60  48 MISG      30.11R
LAGUARDIA APRT PTSUNNY   81  58  45 S17       30.08R
KENNEDY INTL   MOSUNNY   80  58  46 S18       30.11S
NEWARK/LIBERTY MOSUNNY   85  59  41 S12G17    30.08S
BRNX BOT. GARD   N/A     79  61  53 S12       30.10S
TETERBORO      MOSUNNY   85  58  39 SW15G22   30.06S
$$

NYZ177-179-078>081-312000-
LONG ISLAND NEW YORK

CITY           SKY/WX    TMP DP  RH WIND       PRES   REMARKS
FARMINGDALE    SUNNY     78  57  48 S14       30.10F
ISLIP          MOSUNNY   80  55  42 S13       30.09F
SHIRLEY        SUNNY     78  62  57 S13       30.12S
WESTHAMPTON    SUNNY     79  61  53 S13G20    30.13S
MONTAUK POINT    N/A     77  64  64 S6        30.14S
$$

NYZ052-065-067-312000-
HUDSON VALLEY

CITY           SKY/WX    TMP DP  RH WIND       PRES   REMARKS
WHITE PLAINS   MOSUNNY   79  59  50 S10G16    30.08S
NEWBURGH       NOT AVBL
MONTGOMERY     MOSUNNY   81  57  43 SW18      30.06S
POUGHKEEPSIE   MOSUNNY   81  61  50 VRB6      30.05F
ALBANY         PTSUNNY   74  63  68 NW14      30.04S
$$

NJZ001-105-106-008-010-013-015-019>022-104-312000-
NEW JERSEY

CITY           SKY/WX    TMP DP  RH WIND       PRES   REMARKS
NEWARK/LIBERTY MOSUNNY   85  59  41 S12G17    30.08S
TETERBORO      MOSUNNY   85  58  39 SW15G22   30.06S
CALDWELL       MOSUNNY   81  58  45 VRB7      30.08F
MORRISTOWN     MOSUNNY   82  57  42 SW7G17    30.08S
SOMERVILLE     MOSUNNY   83  59  44 W8        30.06S
LINDEN         FAIR      83  58  42 W5        30.09S
SUSSEX         MOSUNNY   82  59  45 SW7       30.08S
ANDOVER          N/A     79  58  48 VRB7      30.09S
TRENTON        MOSUNNY   82  59  45 SW10      30.08S
MILLVILLE      MOSUNNY   84  61  45 SW8G20    30.10F
ATLANTIC CITY  MOSUNNY   83  59  44 SW8       30.10S
WRIGHTSTOWN    MOSUNNY   83  60  45 SW10G20   30.06F
TOMS RIVER     PTSUNNY   84  59  42 W6        30.09S
BELMAR         PTSUNNY   81  64  57 SE7       30.10S
$$

PAZ047>061-062-071-312000-
EASTERN PENNSYLVANIA

CITY           SKY/WX    TMP DP  RH WIND       PRES   REMARKS
PHILADELPHIA   MOSUNNY   84  61  45 W15       30.08F
ALLENTOWN      SUNNY     82  56  40 W13       30.09R
SCRANTON       PTSUNNY   78  56  46 W13G18    30.09R
$$

CTZ002-004>006-009-010-012-RIZ004-006-007-MAZ004-011-015-312000-
SOUTHERN NEW ENGLAND
 IN CT

CITY           SKY/WX    TMP DP  RH WIND       PRES   REMARKS
BRADLEY INTL   PTSUNNY   80  56  43 SW12      30.06F
HARTFORD       MOSUNNY   82  56  40 S13       30.07S
DANBURY        MOSUNNY   79  57  46 SW12      30.09F
WTRBRY/OXFORD  MOSUNNY   77  59  53 SW8       30.12
BRIDGEPORT     SUNNY     79  60  52 VRB7      30.09S
MERIDEN        MOSUNNY   82  55  39 S14G21    30.08F
NEW HAVEN      MOSUNNY   82  57  42 S7        30.10S
CHESTER        FAIR      79  55  44 S10G16    30.12S
GROTON         SUNNY     74  64  71 S10       30.10S
WILLIMANTIC    MOSUNNY   80  55  42 S12G20    30.10S

 IN RI

CITY           SKY/WX    TMP DP  RH WIND       PRES   REMARKS
PROVIDENCE     MOSUNNY   82  57  42 S17G25    30.11S
BLOCK ISLAND   SUNNY     77  57  50 SW14      30.14S
WESTERLY       SUNNY     78  61  55 S9        30.12F

 IN MA

CITY           SKY/WX    TMP DP  RH WIND       PRES   REMARKS
BOSTON         PTSUNNY   79  58  48 S13       30.07F
WORCESTER      PTSUNNY   76  56  49 S14       30.11S
WESTFIELD      PTSUNNY   81  59  47 S12G23    30.06F
PROVINCETOWN   SUNNY     79  61  53 S14G21    30.12S
NANTUCKET      SUNNY     73  64  73 S13       30.15R
$$

ANZ330-335-338-340-345-350-353-355-312000-
COASTAL MARINE OBSERVATIONS


STATION/POSITION TIME  SKY/WX   TEMP    WIND        PRES    VSBY  WAVE
                                AIR SEA DIR/SP/G                  HT/PER
                 (UTC)          (F)     (DEG/KT/KT) (MB)    (MI)  (FT/S)
NY HARB ENTRANCE NOT AVBL
4S FIRE IS       NOT AVBL
23SW MTP         1900            73 72              1019.9          3/ 8
HUDSON CANYON    1900            74 76  200/  6/  8 1020.6          3/ 7
EXECUTION ROCKS  1900            77 71  200/ 12/ 16   N/A
WESTERN LI SOUND 1900            77     190/  8/ 14   N/A           1
CENTRAL LI SOUND 1800            76 74  200/  6/  8   N/A           1
EASTERN LI SOUND 1800            72 68  180/ 10/ 12   N/A
ROBBINS REEF     1900            75     160/ 16/ 18   N/A
$$


>>>>>>>>>>>>>>>>>>>>>>>>>>>> KEY <<<<<<<<<<<<<<<<<<<<<<<<<<<
>                                                          <
>     SKY/WX - SKY CONDITION/PRESENT WEATHER               <
>     TMP    - TEMPERATURE IN FAHRENHEIT                   <
>     DP     - DEWPOINT IN FAHRENHEIT                      <
>     RH     - RELATIVE HUMIDITY IN PERCENT                <
>     WIND   - DIRECTION AND SPEED IN MPH                  <
>     PRES   - MEAN SEA LEVEL PRESSURE IN INCHES OF HG     <
>     WCI    - WIND CHILL INDEX                            <
>     VSB    - VISIBILITY IN MILES                         <
>     HX     - HEAT INDEX                                  <
>     TC     - TEMPERATURE IN CELSIUS                      <
>     VRB    - VARIABLE WIND DIRECTION                     <
>                                                          <
>>>>>>>>>>>>>>>>>>>>>>>>>>>> KEY <<<<<<<<<<<<<<<<<<<<<<<<<<<




USA.gov is the U.S. government's official web portal to all federal, state and local government web resources and services.